• In Czech Republic
  • List of Countries
  • For 7 days
  • Water Temperature
  • Satellite Maps
  • Weather Map
  • Weather Widgets
  • user-avatar
    Login

    Hourly Weather Elbasan

    Today, 18 January, Thursday

    Time Temperature Precipitation Wind Pressure Humidity
    00:00 +4°C° 0.5 mm 6 mps 726 mmHg 83%
    01:00 +3°C° 0 mm 7 mps 726 mmHg 83%
    02:00 +2°C° 0.1 mm 6 mps 727 mmHg 83%
    03:00 +1°C° 0.1 mm 6 mps 728 mmHg 83%
    04:00 +1°C° 0.1 mm 6 mps 729 mmHg 82%
    05:00 0°C° 0 mm 5 mps 730 mmHg 81%
    06:00 0°C° 0 mm 5 mps 731 mmHg 81%
    07:00 -1°C° 0 mm 4 mps 732 mmHg 80%
    08:00 0°C° 0 mm 5 mps 733 mmHg 71%
    09:00 +2°C° 0 mm 6 mps 734 mmHg 62%
    10:00 +3°C° 0 mm 6 mps 735 mmHg 54%
    11:00 +3°C° 0 mm 6 mps 735 mmHg 53%
    12:00 +4°C° 0 mm 6 mps 735 mmHg 51%
    13:00 +4°C° 0 mm 6 mps 736 mmHg 50%
    14:00 +5°C° 0 mm 5 mps 736 mmHg 53%
    15:00 +5°C° 0 mm 4 mps 736 mmHg 57%
    16:00 +4°C° 0 mm 3 mps 736 mmHg 61%
    17:00 +4°C° 0 mm 2 mps 737 mmHg 62%
    18:00 +4°C° 0 mm 2 mps 737 mmHg 63%
    19:00 +3°C° 0 mm 2 mps 737 mmHg 63%
    20:00 +3°C° 0 mm 2 mps 737 mmHg 61%
    21:00 +3°C° 0 mm 2 mps 737 mmHg 59%
    22:00 +3°C° 0 mm 2 mps 737 mmHg 58%
    23:00 +3°C° 0 mm 2 mps 737 mmHg 57%

    Tomorrow, 19 January, Friday

    Time Temperature Precipitation Wind Pressure Humidity
    00:00 +3°C° 0 mm 2 mps 737 mmHg 56%
    01:00 +3°C° 0 mm 2 mps 737 mmHg 56%
    02:00 +3°C° 0 mm 2 mps 737 mmHg 57%
    03:00 +3°C° 0 mm 2 mps 736 mmHg 59%
    04:00 +2°C° 0 mm 3 mps 736 mmHg 60%
    05:00 +2°C° 0 mm 3 mps 736 mmHg 61%
    06:00 +2°C° 0 mm 3 mps 736 mmHg 61%
    07:00 +2°C° 0 mm 3 mps 736 mmHg 61%
    08:00 +4°C° 0 mm 3 mps 736 mmHg 61%
    09:00 +7°C° 0 mm 3 mps 736 mmHg 60%
    10:00 +8°C° 0 mm 3 mps 736 mmHg 59%
    11:00 +9°C° 0 mm 2 mps 736 mmHg 61%
    12:00 +9°C° 0 mm 2 mps 735 mmHg 62%
    13:00 +10°C° 0 mm 2 mps 735 mmHg 64%
    14:00 +9°C° 0 mm 2 mps 735 mmHg 67%
    15:00 +9°C° 0 mm 2 mps 735 mmHg 70%
    16:00 +8°C° 0 mm 2 mps 734 mmHg 74%
    17:00 +8°C° 0 mm 2 mps 735 mmHg 75%
    18:00 +7°C° 0 mm 2 mps 735 mmHg 77%
    19:00 +5°C° 0 mm 3 mps 735 mmHg 79%
    20:00 +5°C° 0 mm 3 mps 734 mmHg 80%
    21:00 +5°C° 0 mm 3 mps 734 mmHg 81%
    22:00 +5°C° 0 mm 3 mps 734 mmHg 82%
    23:00 +5°C° 0 mm 3 mps 734 mmHg 84%

    Day after tomorrow, 20 January, Saturday

    Time Temperature Precipitation Wind Pressure Humidity
    00:00 +5°C° 0 mm 3 mps 734 mmHg 85%
    01:00 +5°C° 0 mm 3 mps 734 mmHg 86%
    02:00 +5°C° 0 mm 3 mps 733 mmHg 87%
    03:00 +5°C° 0 mm 3 mps 733 mmHg 87%
    04:00 +7°C° 0 mm 3 mps 733 mmHg 88%
    05:00 +7°C° 0 mm 3 mps 733 mmHg 88%
    06:00 +7°C° 0 mm 3 mps 733 mmHg 87%
    07:00 +7°C° 0 mm 3 mps 733 mmHg 87%
    08:00 +8°C° 0 mm 3 mps 733 mmHg 85%
    09:00 +9°C° 0 mm 3 mps 733 mmHg 83%
    10:00 +10°C° 0 mm 3 mps 733 mmHg 80%
    11:00 +11°C° 0.2 mm 3 mps 733 mmHg 80%
    12:00 +11°C° 0.2 mm 3 mps 732 mmHg 79%
    13:00 +11°C° 0.2 mm 4 mps 731 mmHg 78%
    14:00 +11°C° 0.5 mm 3 mps 731 mmHg 82%
    15:00 +10°C° 0.5 mm 3 mps 731 mmHg 85%
    16:00 +10°C° 0.5 mm 3 mps 731 mmHg 89%
    17:00 +9°C° 0.9 mm 3 mps 731 mmHg 91%
    18:00 +9°C° 0.9 mm 3 mps 731 mmHg 93%
    19:00 +8°C° 0.9 mm 3 mps 731 mmHg 95%
    20:00 +8°C° 0.5 mm 2 mps 731 mmHg 95%
    21:00 +8°C° 0.5 mm 2 mps 731 mmHg 95%
    22:00 +8°C° 0.5 mm 2 mps 731 mmHg 95%
    23:00 +8°C° 0.3 mm 2 mps 731 mmHg 95%

    21 January, Sunday

    Time Temperature Precipitation Wind Pressure Humidity
    00:00 +8°C° 0.3 mm 2 mps 730 mmHg 95%
    01:00 +8°C° 0.3 mm 2 mps 730 mmHg 95%
    02:00 +8°C° 0.4 mm 2 mps 730 mmHg 94%
    03:00 +8°C° 0.4 mm 2 mps 729 mmHg 94%
    04:00 +8°C° 0.4 mm 2 mps 728 mmHg 93%
    05:00 +8°C° 0.6 mm 2 mps 728 mmHg 93%
    06:00 +8°C° 0.6 mm 2 mps 728 mmHg 92%
    07:00 +8°C° 0.6 mm 3 mps 727 mmHg 91%
    08:00 +8°C° 0.6 mm 3 mps 727 mmHg 88%
    09:00 +9°C° 0.6 mm 3 mps 727 mmHg 85%
    10:00 +10°C° 0.6 mm 3 mps 726 mmHg 82%
    11:00 +10°C° 0.7 mm 2 mps 726 mmHg 80%
    12:00 +10°C° 0.7 mm 2 mps 725 mmHg 78%
    13:00 +11°C° 0.7 mm 1 mps 725 mmHg 76%
    14:00 +10°C° 0.7 mm 1 mps 725 mmHg 79%
    15:00 +9°C° 0.7 mm 2 mps 725 mmHg 81%
    16:00 +9°C° 0.7 mm 2 mps 725 mmHg 84%
    17:00 +8°C° 0.4 mm 2 mps 726 mmHg 84%
    18:00 +8°C° 0.4 mm 3 mps 726 mmHg 85%
    19:00 +7°C° 0.4 mm 3 mps 727 mmHg 85%
    20:00 +7°C° 0 mm 3 mps 728 mmHg 84%
    21:00 +5°C° 0 mm 4 mps 728 mmHg 82%
    22:00 +4°C° 0 mm 4 mps 729 mmHg 81%
    23:00 +4°C° 0 mm 4 mps 729 mmHg 80%

    22 January, Monday

    Time Temperature Precipitation Wind Pressure Humidity
    00:00 +3°C° 0 mm 4 mps 730 mmHg 78%
    01:00 +3°C° 0 mm 4 mps 730 mmHg 77%
    02:00 +3°C° 0 mm 4 mps 730 mmHg 76%
    03:00 +1°C° 0 mm 4 mps 731 mmHg 76%
    04:00 +2°C° 0 mm 3 mps 731 mmHg 76%
    05:00 +1°C° 0 mm 3 mps 731 mmHg 75%
    06:00 +1°C° 0 mm 3 mps 732 mmHg 74%
    07:00 +1°C° 0 mm 3 mps 732 mmHg 73%
    08:00 +2°C° 0 mm 3 mps 733 mmHg 67%
    09:00 +3°C° 0 mm 3 mps 733 mmHg 60%
    10:00 +4°C° 0 mm 4 mps 734 mmHg 53%
    11:00 +5°C° 0 mm 4 mps 734 mmHg 49%
    12:00 +6°C° 0 mm 4 mps 734 mmHg 45%
    13:00 +6°C° 0 mm 4 mps 734 mmHg 40%
    14:00 +7°C° 0 mm 3 mps 734 mmHg 44%
    15:00 +5°C° 0 mm 3 mps 735 mmHg 47%
    16:00 +5°C° 0 mm 3 mps 735 mmHg 51%
    17:00 +4°C° 0 mm 3 mps 735 mmHg 53%
    18:00 +3°C° 0 mm 3 mps 736 mmHg 55%
    19:00 +2°C° 0 mm 3 mps 737 mmHg 58%
    20:00 +2°C° 0 mm 3 mps 737 mmHg 58%
    21:00 +1°C° 0 mm 3 mps 737 mmHg 58%
    22:00 +1°C° 0 mm 3 mps 738 mmHg 58%
    23:00 +1°C° 0 mm 3 mps 738 mmHg 58%

    23 January, Tuesday

    Time Temperature Precipitation Wind Pressure Humidity
    00:00 +1°C° 0 mm 3 mps 738 mmHg 58%
    01:00 +1°C° 0 mm 3 mps 739 mmHg 58%
    02:00 0°C° 0 mm 3 mps 739 mmHg 58%
    03:00 0°C° 0 mm 3 mps 739 mmHg 57%
    04:00 0°C° 0 mm 3 mps 739 mmHg 56%
    05:00 0°C° 0 mm 3 mps 739 mmHg 55%
    06:00 0°C° 0 mm 3 mps 740 mmHg 54%
    07:00 0°C° 0 mm 3 mps 740 mmHg 52%
    08:00 +1°C° 0 mm 3 mps 740 mmHg 46%
    09:00 +3°C° 0 mm 3 mps 741 mmHg 40%
    10:00 +6°C° 0 mm 2 mps 741 mmHg 34%
    11:00 +7°C° 0 mm 2 mps 741 mmHg 31%
    12:00 +8°C° 0 mm 2 mps 741 mmHg 29%
    13:00 +9°C° 0 mm 2 mps 741 mmHg 26%
    14:00 +8°C° 0 mm 2 mps 741 mmHg 31%
    15:00 +7°C° 0 mm 2 mps 741 mmHg 37%
    16:00 +7°C° 0 mm 2 mps 741 mmHg 42%
    17:00 +6°C° 0 mm 2 mps 741 mmHg 43%
    18:00 +5°C° 0 mm 2 mps 741 mmHg 45%
    19:00 +4°C° 0 mm 2 mps 742 mmHg 46%
    20:00 +4°C° 0 mm 2 mps 742 mmHg 46%
    21:00 +4°C° 0 mm 2 mps 742 mmHg 46%
    22:00 +4°C° 0 mm 2 mps 742 mmHg 46%
    23:00 +5°C° 0 mm 1 mps 742 mmHg 47%
    Show more